Content
SEND FEEDBACK

Daily
Averages
Monthly
Summary
Canada

VANCOUVER, BRITISH COLUMBIA


Home > North America > Canada > British Columbia
Elevation: 7 feet     Latitude: 49 11N     Longitude: 123 10W

WEATHER
 
SELECT A DAY
Number of Records: 253,080;   Date Range: 5/15/97 - 10/24/14
 
SHARE

PRINT THIS DATA

[ ← Previous Day ]
WEATHER ALMANAC - FEBRUARY 8, 2013
[ Next Day → ]
[ °C ]   °F
Weather ElementAverageHighLow
Temperature39.8 °F42.8 °F (12:35 pm)33.8 °F (12:55 am)
Dewpoint37.3 °F39.2 °F (2:55 am)32 °F (12:55 am)
Humidity90.9 %100 % (1:15 am)76 % (4:15 pm)
Barometer30.26 in30.29 in (10:35 am)30.19 in (12:35 am)
Wind Speed0.6 mph8.1 mph (2:55 am)
Weather ElementAverage
Visibility8.9 mi
Wind DirectionNE (40.6 °)

Weather ElementTotal
Precipitation---
Heating Degree Days26.7 (Base 65)
Averaged from 65 records on February 8, 2013
WEATHER CONDITIONS BREAKOUT
WIND DIRECTION BREAKOUT
WEATHER BY HOUR - FEBRUARY 8, 2013
[ °C ]   °F
Local TimeTemperatureDewpointHumidityBarometerVisibilityWind DirectionWind SpeedGust SpeedPrecipitationEventsConditions
12:35 AM35.6 °F33.8 °F93 %30.19 in9.0 miCalmScattered Clouds
12:55 AM33.8 °F32.0 °F93 %30.19 in8.0 miCalmPartly Cloudy
1:15 AM33.8 °F33.8 °F100 %30.19 in9.0 miCalmPartly Cloudy
1:35 AM33.8 °F33.8 °F100 %30.20 in10.0 miCalmMostly Cloudy
1:55 AM33.8 °F33.8 °F100 %30.21 in10.0 miCalmOvercast
2:15 AM35.6 °F35.6 °F100 %30.21 in10.0 miCalmOvercast
2:35 AM37.4 °F37.4 °F100 %30.22 in10.0 miCalmOvercast
2:55 AM41.0 °F39.2 °F93 %30.22 in10.0 miNNW (340°)8.1 mphOvercast
3:15 AM39.2 °F37.4 °F93 %30.22 in10.0 miCalmScattered Clouds
3:35 AM37.4 °F35.6 °F93 %30.22 in10.0 miCalmClear
4:15 AM37.4 °F35.6 °F93 %30.23 in10.0 miCalmOvercast
4:35 AM41.0 °F37.4 °F87 %30.24 in10.0 miNorth (350°)5.8 mphOvercast
4:55 AM41.0 °F37.4 °F87 %30.23 in10.0 miCalmOvercast
5:35 AM39.2 °F37.4 °F93 %30.24 in10.0 miCalmOvercast
6:15 AM37.4 °F37.4 °F100 %30.24 in10.0 miCalmOvercast
6:35 AM37.4 °F37.4 °F100 %30.25 in3.0 miCalmRainLight Rain
6:55 AM37.4 °F37.4 °F100 %30.25 in7.0 miCalmMostly Cloudy
7:15 AM37.4 °F37.4 °F100 %30.25 in5.0 miCalmOvercast
7:35 AM37.4 °F37.4 °F100 %30.26 in5.0 miCalmOvercast
7:55 AM37.4 °F37.4 °F100 %30.26 in3.0 miCalmOvercast
8:15 AM39.2 °F37.4 °F93 %30.26 in3.0 miCalmOvercast
8:35 AM39.2 °F39.2 °F100 %30.27 in2.0 miCalmRainLight Rain
8:55 AM39.2 °F39.2 °F100 %30.27 in3.0 miCalmRainLight Rain
9:15 AM39.2 °F39.2 °F100 %30.28 in5.0 miCalmMostly Cloudy
9:35 AM39.2 °F39.2 °F100 %30.28 in6.0 miCalmMostly Cloudy
9:55 AM41.0 °F39.2 °F93 %30.28 in4.0 miWSW (250°)3.5 mphRainLight Rain
10:15 AM41.0 °F39.2 °F93 %30.28 in10.0 miCalmOvercast
10:35 AM41.0 °F39.2 °F93 %30.29 in10.0 miCalmOvercast
11:15 AM41.0 °F39.2 °F93 %30.29 in10.0 miCalmMostly Cloudy
11:35 AM41.0 °F39.2 °F93 %30.29 in10.0 miCalmOvercast
11:55 AM41.0 °F37.4 °F87 %30.28 in10.0 miCalmMostly Cloudy
12:15 PM41.0 °F39.2 °F93 %30.28 in10.0 miCalmOvercast
12:35 PM42.8 °F39.2 °F87 %30.27 in10.0 miNW (310°)3.5 mphOvercast
12:55 PM42.8 °F39.2 °F87 %30.27 in10.0 miNorth (350°)4.6 mphOvercast
1:15 PM42.8 °F37.4 °F81 %30.27 in10.0 miNNW (340°)4.6 mphOvercast
1:35 PM42.8 °F37.4 °F81 %30.28 in10.0 miNorth (350°)4.6 mphOvercast
1:55 PM42.8 °F37.4 °F81 %30.28 in10.0 miNorth (350°)4.6 mphOvercast
2:15 PM42.8 °F37.4 °F81 %30.27 in10.0 miCalmOvercast
2:35 PM42.8 °F37.4 °F81 %30.27 in10.0 miCalmOvercast
2:55 PM42.8 °F37.4 °F81 %30.27 in10.0 miCalmOvercast
3:15 PM42.8 °F37.4 °F81 %30.27 in10.0 miCalmOvercast
3:35 PM41.0 °F37.4 °F87 %30.27 in10.0 miCalmOvercast
4:15 PM42.8 °F35.6 °F76 %30.27 in8.0 miCalmOvercast
4:35 PM42.8 °F37.4 °F81 %30.26 in10.0 miCalmOvercast
4:55 PM41.0 °F35.6 °F81 %30.27 in10.0 miCalmOvercast
5:15 PM41.0 °F37.4 °F87 %30.27 in10.0 miCalmOvercast
5:35 PM41.0 °F37.4 °F87 %30.27 in10.0 miCalmOvercast
5:55 PM41.0 °F37.4 °F87 %30.27 in10.0 miCalmOvercast
6:15 PM41.0 °F37.4 °F87 %30.27 in10.0 miCalmOvercast
6:55 PM41.0 °F37.4 °F87 %30.26 in10.0 miCalmOvercast
7:15 PM41.0 °F37.4 °F87 %30.26 in10.0 miCalmOvercast
7:35 PM41.0 °F37.4 °F87 %30.26 in10.0 miCalmOvercast
7:55 PM41.0 °F37.4 °F87 %30.26 in10.0 miCalmOvercast
8:15 PM41.0 °F37.4 °F87 %30.26 in10.0 miCalmOvercast
8:35 PM41.0 °F37.4 °F87 %30.27 in10.0 miCalmOvercast
8:55 PM41.0 °F37.4 °F87 %30.26 in10.0 miCalmOvercast
9:15 PM41.0 °F37.4 °F87 %30.26 in10.0 miCalmOvercast
9:35 PM41.0 °F37.4 °F87 %30.26 in10.0 miCalmOvercast
9:55 PM39.2 °F37.4 °F93 %30.26 in10.0 miCalmOvercast
10:15 PM39.2 °F37.4 °F93 %30.27 in10.0 miCalmOvercast
10:35 PM39.2 °F37.4 °F93 %30.26 in10.0 miCalmOvercast
10:55 PM39.2 °F37.4 °F93 %30.25 in10.0 miCalmMostly Cloudy
11:15 PM39.2 °F37.4 °F93 %30.26 in10.0 miCalmOvercast
11:35 PM39.2 °F37.4 °F93 %30.26 in10.0 miCalmOvercast
11:55 PM39.2 °F37.4 °F93 %30.27 in10.0 miCalmOvercast
Hourly data recorded from CZBB, located miles away from Vancouver, British Columbia







STORIES FROM OUR PARTNERS